Location: Bellflower
(33.8817°N, 118.1170°W)
Time: 12:43:18
(UTC+00:00)

Okean O Rocket - Pass Details

Date: 23 November 2020
Orbit: 622 x 645 km, 98.2° (Epoch: 22 January)

Event Time Altitude Azimuth Distance (km) Brightness Sun altitude
Rises 13:52:09 0° 18° (NNE) 2,947 5.0 -8.7°
Reaches altitude 10° 13:54:25 10° 23° (NNE) 2,037 4.3 -8.2°
Maximum altitude 13:58:45 52° 100° (E) 798 2.6 -7.4°
Drops below altitude 10° 14:03:04 10° 177° (S) 2,031 4.5 -6.5°
Sets 14:05:19 0° 182° (S) 2,938 5.3 -6.1°
